"2022-08-30 00:01:00",3091365,1.630667,15.23786,15.8681,0.4226025,2.44,0,0.96,344.0916,28.02399,0.3856596,1.65,0,-999,0,14.11,89,14.29,14.16,0.2,0,0,15.3,13.26,0.2,102.2188,3.333,3.333,3.33,100,0,0,0,206.6,19.93,19.93
"2022-08-30 00:02:00",3091366,1.359333,14.68869,15.69035,0.2810093,1.93,0,0.476,358.5733,23.93969,0.1514287,0.72,0,-999,0,14.25,89.9,14.48,14.35,0.2,0,0,15.27,13.26,0.2,102.2206,3.333,3.334,3.333,100,0,0,0,206.6,19.93,19.93
"2022-08-30 00:03:00",3091367,1.275333,11.59177,9.8848,0.1783579,1.5,0,0.67,347.9908,18.93913,0.1268595,0.84,0,-999,0,14.38,90.3,14.63,14.55,0.2,0,0,15.26,13.26,0.2,102.2188,3.331,3.334,3.331,100,0,0,0,206.6,19.94,19.93
"2022-08-30 00:04:00",3091368,1.25,13.72027,6.269452,0.2004994,1.6,0,0.504,338.6641,13.70328,0.1109835,0.72,0,-999,0,14.4,89.9,14.59,14.57,0.2,0,0,15.23,13.26,0.2,102.2225,3.333,3.333,3.331,100,0,0,0,206.6,19.93,19.93
"2022-08-30 00:05:00",3091369,1.606,17.70797,10.23311,0.221263,2.02,0,0.6106666,344.5943,9.57889,0.1406398,0.91,0,-999,0,14.43,90.1,14.6,14.58,0.2,0,0,15.2,13.27,0.2,102.2192,3.333,3.333,3.332,100,0,0,0,206.6,19.93,19.93
"2022-08-30 00:06:00",3091370,1.506667,7.520557,8.857965,0.2117441,1.83,0,0.964,338.4913,9.038285,0.1324034,1.19,0,-999,0,14.44,89.5,14.54,14.55,0.2,0,0,15.17,13.26,0.2,102.2192,3.333,3.334,3.332,100,0,0,0,206.6,19.94,19.93
"2022-08-30 00:07:00",3091371,1.564667,8.334831,8.55395,0.3918991,2.22,0,1.344,340.9693,24.44483,0.3549798,2.26,0,-999,0,14.4,88.9,14.44,14.44,0.2,0,0,15.16,13.26,0.2,102.2208,3.333,3.333,3.331,100,0,0,0,206.6,19.93,19.93
"2022-08-30 00:08:00",3091372,1.374666,6.740891,6.089992,0.1404216,1.58,0,0.9420001,324.9372,9.549941,0.1535448,1.29,0,-999,0,14.29,88.7,14.36,14.36,0.2,0,0,15.13,13.26,0.2,102.2191,3.332,3.333,3.331,100,0,0,0,206.6,19.93,19.93
"2022-08-30 00:09:00",3091373,1.456,19.71174,17.06425,0.2684722,2.21,0,0.9873333,325.5957,7.351707,0.06016274,1.11,0,-999,0,14.2,89.2,14.32,14.28,0.2,0,0,15.1,13.26,0.2,102.2157,3.333,3.333,3.331,100,0,0,0,206.6,19.93,19.93
"2022-08-30 00:10:00",3091374,1.476,9.274662,6.107756,0.1671646,1.86,0,0.8793333,336.3878,10.80644,0.1314771,1.12,0,-999,0,14.19,89.5,14.28,14.26,0.2,0,0,15.08,13.26,0.2,102.2161,3.333,3.333,3.332,100,0,0,0,206.6,19.94,19.93
"2022-08-30 00:11:00",3091375,1.144667,1.674192,8.9901,0.1740064,1.6,0,0.8986666,318.8069,7.747359,0.1438456,1.19,0,-999,0,14.15,89.7,14.27,14.25,0.2,0,0,15.06,13.26,0.2,102.2141,3.331,3.333,3.331,100,0,0,0,206.6,19.93,19.93
"2022-08-30 00:12:00",3091376,1.149333,6.02521,9.808779,0.1647813,1.48,0,0.7673334,316.0649,18.01021,0.2172086,1.05,0,-999,0,14.08,89.8,14.18,14.15,0.2,0,0,15.03,13.26,0.2,102.2156,3.331,3.333,3.331,100,0,0,0,206.6,19.93,19.93
"2022-08-30 00:13:00",3091377,1.303333,354.3409,9.585435,0.1784252,1.57,0,1.082667,318.9982,4.047877,0.1476242,1.37,0,-999,0,13.95,89.7,14.05,14.01,0.2,0,0,15.01,13.25,0.2,102.2187,3.331,3.332,3.328,100,0,0,0,206.6,19.93,19.93
"2022-08-30 00:14:00",3091378,1.086667,359.2971,13.16049,0.3252828,1.64,0,0.6553333,309.8229,9.939853,0.2308785,0.96,0,-999,0,13.89,89.5,13.96,13.94,0.2,0,0,14.98,13.26,0.2,102.2122,3.332,3.333,3.331,100,0,0,0,206.6,19.93,19.93
"2022-08-30 00:15:00",3091379,1.276667,4.000212,11.19091,0.255282,1.71,0,0.5046666,320.5338,14.0406,0.2587114,1.04,0,-999,0,13.8,89.6,13.88,13.84,0.2,0,0,14.96,13.26,0.2,102.2134,3.331,3.333,3.331,100,0,0,0,206.6,19.93,19.93
"2022-08-30 00:16:00",3091380,1.556667,11.05921,8.098958,0.350365,2.17,0,0.692,335.8693,22.69407,0.155057,0.95,0,-999,0,13.73,90.5,13.89,13.79,0.2,0,0,14.93,13.26,0.2,102.2087,3.33,3.333,3.329,100,0,0,0,206.6,19.93,19.93
"2022-08-30 00:17:00",3091381,1.678,9.096968,9.136789,0.3118162,2.28,0,0.734,347.1862,14.10763,0.1428659,0.96,0,-999,0,13.71,90.7,13.9,13.82,0.2,0,0,14.9,13.25,0.2,102.2107,3.329,3.331,3.327,100,0,0,0,206.6,19.93,19.93
"2022-08-30 00:18:00",3091382,1.396,14.00627,5.974337,0.1053122,1.64,0,1.036,338.7466,10.3681,0.08905429,1.18,0,-999,0,13.75,90.9,13.92,13.85,0.2,0,0,14.88,13.26,0.2,102.2052,3.331,3.331,3.328,100,0,0,0,206.6,19.93,19.93
"2022-08-30 00:19:00",3091383,1.430667,13.54111,8.965925,0.1142201,1.65,0,1.036667,332.9937,8.532113,0.1194246,1.27,0,-999,0,13.7,90.9,13.89,13.83,0.2,0,0,14.85,13.26,0.2,102.2063,3.329,3.331,3.329,100,0,0,0,206.6,19.93,19.93
"2022-08-30 00:20:00",3091384,1.358667,3.19077,8.519503,0.1806236,1.62,0,0.9826667,327.264,4.764065,0.08551543,1.2,0,-999,0,13.77,91.5,13.95,13.88,0.2,0,0,14.82,13.27,0.2,102.2058,3.331,3.332,3.331,100,0,0,0,206.6,19.94,19.93
"2022-08-30 00:21:00",3091385,1.394,2.926362,5.91179,0.2300377,1.89,0,0.9093332,324.933,4.581508,0.1091462,1.05,0,-999,0,13.8,91.7,13.96,13.89,0.2,0,0,14.79,13.26,0.2,102.2067,3.331,3.332,3.33,100,0,0,0,206.6,19.93,19.93
"2022-08-30 00:22:00",3091386,1.684,11.936,5.832211,0.132101,1.88,0,0.7293333,334.9306,9.524734,0.1172727,0.9,0,-999,0,13.77,91.6,13.94,13.88,0.2,0,0,14.77,13.26,0.2,102.2049,3.331,3.331,3.329,100,0,0,0,206.6,19.93,19.93
"2022-08-30 00:23:00",3091387,1.577333,9.469114,6.0511,0.228516,1.92,0,1.099333,342.8178,8.855692,0.162664,1.49,0,-999,0,13.7,91.2,13.82,13.8,0.2,0,0,14.74,13.25,0.2,102.2021,3.329,3.331,3.327,100,0,0,0,206.6,19.94,19.93
"2022-08-30 00:24:00",3091388,1.652667,17.45949,14.73812,0.3019375,2.39,0,0.8733333,356.9312,14.7184,0.06739601,0.97,0,-999,0,13.71,91.5,13.83,13.78,0.2,0,0,14.71,13.26,0.2,102.2025,3.329,3.333,3.329,100,0,0,0,206.6,19.93,19.93
"2022-08-30 00:25:00",3091389,2.24,21.21695,7.957906,0.2856338,2.77,0,0.9273333,12.96346,7.210732,0.1516341,1.2,0,-999,0,13.82,92.3,14.05,14.01,0.2,0,0,14.68,13.26,0.2,102.203,3.329,3.33,3.328,100,0,0,0,206.6,19.93,19.93
"2022-08-30 00:26:00",3091390,2.070667,22.27139,8.912431,0.2097448,2.44,0,1.456,21.59816,5.081091,0.1044222,1.65,0,-999,0,13.93,91.5,14.12,14.13,0.2,0,0,14.66,13.26,0.2,102.2036,3.328,3.33,3.328,100,0,0,0,206.6,19.93,19.93
"2022-08-30 00:27:00",3091391,1.776,18.12491,8.748385,0.2088636,2.26,0,1.116,12.40327,12.10381,0.1882127,1.46,0,-999,0,14,91.3,14.18,14.19,0.2,0,0,14.63,13.26,0.2,102.2009,3.331,3.331,3.327,100,0,0,0,206.6,19.93,19.93
"2022-08-30 00:28:00",3091392,1.798,21.59866,4.743027,0.2072744,2.17,0,1.045333,22.53117,6.274724,0.1252659,1.25,0,-999,0,14.1,91.4,14.27,14.29,0.2,0,0,14.61,13.26,0.2,102.2021,3.33,3.331,3.329,100,0,0,0,206.6,19.94,19.93
"2022-08-30 00:29:00",3091393,1.773333,20.19707,3.8479,0.1845234,2.15,0,1.045333,16.53646,5.043149,0.1034,1.24,0,-999,0,14.17,91.2,14.3,14.33,0.2,0,0,14.59,13.26,0.2,102.2016,3.331,3.331,3.329,100,0,0,0,206.6,19.93,19.93
"2022-08-30 00:30:00",3091394,1.91,25.15659,7.675765,0.2127283,2.26,0,1.094,14.38391,7.563111,0.15781,1.32,0,-999,0,14.26,91.3,14.35,14.41,0.2,0,0,14.57,13.26,0.2,102.202,3.329,3.333,3.329,100,0,0,0,206.6,19.93,19.93
"2022-08-30 00:31:00",3091395,1.895333,25.33486,5.234698,0.13326,2.1,0,1.123333,13.4749,4.250692,0.09278411,1.32,0,-999,0,14.3,90.8,14.34,14.42,0.2,0,0,14.55,13.27,0.2,102.1978,3.333,3.333,3.329,100,0,0,0,206.6,19.93,19.93
"2022-08-30 00:32:00",3091396,1.728,22.73734,6.335263,0.1921527,2.15,0,0.9113333,13.13574,4.439003,0.1856831,1.22,0,-999,0,14.3,90.3,14.32,14.36,0.2,0,0,14.53,13.26,0.2,102.1945,3.331,3.331,3.33,100,0,0,0,206.6,19.94,19.93
"2022-08-30 00:33:00",3091397,1.829333,16.19449,6.049224,0.1006954,2.01,0,1.316,12.93285,2.488595,0.1347986,1.53,0,-999,0,14.28,90.1,14.29,14.34,0.2,0,0,14.51,13.26,0.2,102.1993,3.329,3.332,3.328,100,0,0,0,206.6,19.93,19.93
"2022-08-30 00:34:00",3091398,2.015333,19.12669,5.779555,0.2465459,2.37,0,1.422,15.00136,5.377977,0.1369282,1.69,0,-999,0,14.2,90.1,14.27,14.3,0.2,0,0,14.49,13.26,0.2,102.1975,3.329,3.331,3.329,100,0,0,0,206.6,19.93,19.93
"2022-08-30 00:35:00",3091399,2.222667,21.31004,10.09669,0.3922834,2.96,0,1.557333,7.467734,9.958066,0.2233224,2.07,0,-999,0,14.24,90.1,14.29,14.33,0.2,0,0,14.48,13.26,0.2,102.2008,3.33,3.331,3.328,100,0,0,0,206.6,19.93,19.93
"2022-08-30 00:36:00",3091400,2.054,30.471,5.247396,0.2124711,2.37,0,1.377333,26.77639,10.27559,0.3173949,1.93,0,-999,0,14.21,90.1,14.26,14.31,0.2,0,0,14.46,13.26,0.2,102.1995,3.328,3.331,3.328,100,0,0,0,206.6,19.94,19.93
"2022-08-30 00:37:00",3091401,1.952,20.06373,6.1793,0.1251239,2.14,0,1.434667,18.99973,2.607632,0.09715049,1.65,0,-999,0,14.2,90,14.25,14.29,0.2,0,0,14.44,13.26,0.2,102.2006,3.329,3.331,3.329,100,0,0,0,206.6,19.93,19.93
"2022-08-30 00:38:00",3091402,1.916,15.78743,8.936566,0.2713374,2.34,0,1.266667,8.389233,6.532226,0.1840531,1.58,0,-999,0,14.21,90.4,14.29,14.31,0.2,0,0,14.43,13.26,0.2,102.1986,3.329,3.33,3.328,100,0,0,0,206.6,19.93,19.93
"2022-08-30 00:39:00",3091403,2.134,22.79801,5.379478,0.2075508,2.58,0,1.286667,8.472126,7.489185,0.2205347,1.79,0,-999,0,14.3,90.7,14.34,14.37,0.2,0,0,14.41,13.26,0.2,102.1982,3.33,3.331,3.329,100,0,0,0,206.6,19.94,19.93
"2022-08-30 00:40:00",3091404,2.132,19.52176,5.396513,0.1878723,2.49,0,1.718,17.00002,3.948674,0.2038038,2.13,0,-999,0,14.3,90.3,14.34,14.37,0.2,0,0,14.4,13.26,0.2,102.2,3.329,3.33,3.327,100,0,0,0,206.6,19.93,19.93
"2022-08-30 00:41:00",3091405,2.016,17.33093,3.662293,0.1471417,2.31,0,1.280667,17.06659,3.640985,0.2003486,1.54,0,-999,0,14.3,90.2,14.37,14.39,0.2,0,0,14.39,13.27,0.2,102.1981,3.331,3.331,3.328,100,0,0,0,206.6,19.93,19.93
"2022-08-30 00:42:00",3091406,1.944,20.53277,8.909947,0.2561718,2.38,0,1.288,11.87457,7.641624,0.1866619,1.59,0,-999,0,14.32,90.3,14.42,14.44,0.2,0,0,14.38,13.26,0.2,102.1997,3.327,3.329,3.327,100,0,0,0,206.6,19.93,19.93
"2022-08-30 00:43:00",3091407,2.06,15.25806,9.457202,0.1428752,2.4,0,1.342,7.071093,11.09347,0.1773208,1.69,0,-999,0,14.4,90.4,14.45,14.5,0.2,0,0,14.36,13.27,0.2,102.2016,3.329,3.329,3.326,100,0,0,0,206.6,19.94,19.93
"2022-08-30 00:44:00",3091408,1.972667,16.71756,7.914278,0.3089437,2.53,0,1.473333,3.039048,8.519948,0.1556349,1.77,0,-999,0,14.35,89.8,14.35,14.4,0.2,0,0,14.35,13.26,0.2,102.1968,3.33,3.33,3.328,100,0,0,0,206.6,19.93,19.93
"2022-08-30 00:45:00",3091409,2.386,20.86704,4.883031,0.2282921,2.87,0,1.402667,11.32784,7.111866,0.2135873,1.86,0,-999,0,14.3,90.1,14.34,14.36,0.2,0,0,14.34,13.26,0.2,102.199,3.33,3.33,3.328,100,0,0,0,206.6,19.93,19.93
"2022-08-30 00:46:00",3091410,1.714667,15.80125,5.526167,0.2199959,2.07,0,1.258,0.8509513,8.185252,0.179748,1.69,0,-999,0,14.27,89.4,14.27,14.3,0.2,0,0,14.32,13.27,0.2,102.2034,3.328,3.331,3.327,100,0,0,0,206.6,19.93,19.94
"2022-08-30 00:47:00",3091411,1.762,15.11282,6.981899,0.1010083,1.9,0,1.002667,359.1346,3.460908,0.06308372,1.12,0,-999,0,14.26,90.4,14.31,14.31,0.2,0,0,14.3,13.25,0.2,102.2021,3.328,3.329,3.325,100,0,0,0,206.6,19.93,19.94
"2022-08-30 00:48:00",3091412,1.612,20.20654,7.450798,0.2341851,1.99,0,1.099333,4.732754,4.418591,0.07424882,1.2,0,-999,0,14.3,90.9,14.38,14.36,0.2,0,0,14.3,13.26,0.2,102.2058,3.329,3.33,3.328,100,0,0,0,206.6,19.93,19.94
"2022-08-30 00:49:00",3091413,1.669333,5.867912,6.678544,0.1626639,2.01,0,1.144667,3.135842,5.535287,0.1030771,1.27,0,-999,0,14.3,90.6,14.36,14.35,0.2,0,0,14.3,13.26,0.2,102.2041,3.328,3.329,3.327,100,0,0,0,206.6,19.94,19.94
"2022-08-30 00:50:00",3091414,1.743333,14.32008,8.5752,0.100907,1.87,0,0.9833333,9.468854,6.535718,0.1031288,1.22,0,-999,0,14.3,90.5,14.33,14.33,0.2,0,0,14.28,13.26,0.2,102.2009,3.327,3.33,3.325,100,0,0,0,206.6,19.93,19.94
"2022-08-30 00:51:00",3091415,2.060667,15.95568,9.695004,0.2521499,2.57,0,1.092667,357.859,5.567355,0.1548103,1.39,0,-999,0,14.3,90.6,14.32,14.31,0.2,0,0,14.27,13.26,0.2,102.1993,3.329,3.329,3.327,100,0,0,0,206.6,19.94,19.94
"2022-08-30 00:52:00",3091416,2.184667,20.65669,6.076319,0.1658058,2.47,0,1.513334,7.005802,6.718948,0.1969659,1.79,0,-999,0,14.2,90.1,14.22,14.22,0.2,0,0,14.25,13.26,0.2,102.1999,3.327,3.329,3.327,100,0,0,0,206.6,19.94,19.94
"2022-08-30 00:53:00",3091417,1.954,15.52975,8.618333,0.1637396,2.37,0,1.623333,1.120359,4.819087,0.1136466,1.94,0,-999,0,14.13,90,14.17,14.16,0.2,0,0,14.25,13.26,0.2,102.1991,3.329,3.33,3.327,100,0,0,0,206.6,19.94,19.94
"2022-08-30 00:54:00",3091418,2.084667,23.2077,8.399764,0.2822733,2.53,0,1.47,23.07246,5.61297,0.1804439,1.87,0,-999,0,14.2,90.4,14.27,14.26,0.2,0,0,14.23,13.26,0.2,102.2012,3.328,3.331,3.328,100,0,0,0,206.6,19.94,19.94
"2022-08-30 00:55:00",3091419,2.635333,22.90168,11.04062,0.4422649,3.5,0,1.846667,12.40172,6.556955,0.2371685,2.27,0,-999,0,14.2,90.4,14.27,14.28,0.2,0,0,14.22,13.26,0.2,102.2016,3.328,3.33,3.328,100,0,0,0,206.6,19.94,19.94
"2022-08-30 00:56:00",3091420,2.284,17.39789,5.641233,0.3194329,2.89,0,1.904667,14.71066,9.775818,0.3066783,2.53,0,-999,0,14.17,90.1,14.18,14.2,0.2,0,0,14.21,13.26,0.2,102.1998,3.328,3.329,3.327,100,0,0,0,206.6,19.94,19.94
"2022-08-30 00:57:00",3091421,2.167333,17.20055,4.197537,0.3017829,2.61,0,1.568667,9.791659,6.752985,0.1600361,1.76,0,-999,0,14.2,90.7,14.24,14.24,0.2,0,0,14.21,13.26,0.2,102.202,3.328,3.328,3.327,100,0,0,0,206.6,19.93,19.94
"2022-08-30 00:58:00",3091422,2.55,19.26533,4.056721,0.2282396,2.93,0,1.605333,20.29763,9.802825,0.2112776,1.95,0,-999,0,14.2,91,14.31,14.31,0.2,0,0,14.21,13.26,0.2,102.2056,3.328,3.329,3.327,100,0,0,0,206.6,19.94,19.94
"2022-08-30 00:59:00",3091423,2.432667,16.61003,6.546594,0.1998155,2.68,0,1.582,12.97142,8.503493,0.1385737,1.87,0,-999,0,14.28,90.7,14.33,14.35,0.2,0,0,14.19,13.26,0.2,102.206,3.328,3.328,3.326,100,0,0,0,206.6,19.94,19.94
"2022-08-30 01:00:00",3091424,2.552667,17.00091,4.224546,0.2445803,3.07,0,1.662667,10.07359,9.737727,0.1163023,1.82,0,-999,0,14.21,90.3,14.21,14.24,0.2,0,0,14.18,13.27,0.2,102.2066,3.328,3.329,3.325,100,0,0,0,206.6,19.94,19.94
"2022-08-30 01:01:00",3091425,2.373333,14.46364,4.614217,0.15602,2.79,0,1.611333,8.533562,4.61607,0.0518802,1.71,0,-999,0,14.11,90.1,14.12,14.13,0.2,0,0,14.16,13.26,0.2,102.2087,3.327,3.328,3.326,100,0,0,0,206.6,19.94,19.94
"2022-08-30 01:02:00",3091426,2.376,18.37797,7.655344,0.238238,3,0,1.484667,8.132328,2.985469,0.06829998,1.62,0,-999,0,14.1,90.7,14.12,14.12,0.2,0,0,14.16,13.26,0.2,102.2099,3.329,3.329,3.326,100,0,0,0,206.6,19.93,19.94
"2022-08-30 01:03:00",3091427,2.401333,18.33521,4.010398,0.2159897,2.76,0,1.543333,10.93625,6.773088,0.217184,1.91,0,-999,0,14.01,90.6,14.06,14.03,0.2,0,0,14.16,13.26,0.2,102.2065,3.327,3.329,3.327,100,0,0,0,206.6,19.94,19.94
"2022-08-30 01:04:00",3091428,2.547333,13.7337,8.034669,0.246102,3.25,0,1.346666,359.0005,3.520484,0.1718397,1.74,0,-999,0,13.95,90.4,13.96,13.96,0.2,0,0,14.16,13.27,0.2,102.2108,3.329,3.33,3.327,100,0,0,0,206.6,19.93,19.94
"2022-08-30 01:05:00",3091429,2.126,18.52913,6.457055,0.2556247,2.57,0,1.498,0.8679284,4.813492,0.1972207,1.8,0,-999,0,13.85,90.5,13.86,13.83,0.2,0,0,14.12,13.26,0.2,102.2011,3.326,3.329,3.325,100,0,0,0,206.6,19.94,19.94
"2022-08-30 01:06:00",3091430,2.184667,11.66191,4.626599,0.1644735,2.54,0,1.356667,354.6042,4.988125,0.1317911,1.51,0,-999,0,13.85,91.3,13.95,13.87,0.2,0,0,14.11,13.26,0.2,102.1998,3.327,3.329,3.326,100,0,0,0,206.6,19.94,19.94
"2022-08-30 01:07:00",3091431,2.258667,14.79648,6.183929,0.2826274,2.91,0,1.324667,9.201469,4.677212,0.1886749,1.63,0,-999,0,13.89,91.7,13.97,13.91,0.2,0,0,14.11,13.26,0.2,102.2014,3.326,3.329,3.326,100,0,0,0,206.6,19.94,19.94
"2022-08-30 01:08:00",3091432,2.072,14.19871,4.632757,0.1895328,2.53,0,1.244667,6.331569,5.663549,0.1137756,1.48,0,-999,0,13.9,91.6,13.97,13.93,0.2,0,0,14.09,13.26,0.2,102.2019,3.327,3.327,3.326,100,0,0,0,206.6,19.94,19.94
"2022-08-30 01:09:00",3091433,2.28,17.98848,7.28901,0.3419162,2.98,0,1.156,358.8646,5.146024,0.1562391,1.51,0,-999,0,13.82,91.1,13.88,13.85,0.2,0,0,14.09,13.25,0.2,102.2046,3.325,3.328,3.325,100,0,0,0,206.6,19.94,19.94
"2022-08-30 01:10:00",3091434,2.083333,22.462,5.521941,0.1893732,2.53,0,1.421333,4.40666,5.995285,0.2792816,2.02,0,-999,0,13.73,90.9,13.76,13.74,0.2,0,0,14.09,13.26,0.2,102.2002,3.327,3.328,3.326,100,0,0,0,206.6,19.94,19.94
"2022-08-30 01:11:00",3091435,2.204,20.06483,4.136638,0.3015029,2.66,0,1.020667,12.42445,12.24052,0.2071543,1.45,0,-999,0,13.7,91.2,13.71,13.69,0.2,0,0,14.06,13.26,0.2,102.2065,3.327,3.331,3.327,100,0,0,0,206.6,19.94,19.94
"2022-08-30 01:12:00",3091436,2.053333,23.57899,9.659872,0.2832353,2.46,0,1.058667,353.5429,6.827747,0.1326583,1.27,0,-999,0,13.7,91.6,13.77,13.72,0.2,0,0,14.06,13.26,0.2,102.2039,3.327,3.328,3.325,100,0,0,0,206.6,19.93,19.94
"2022-08-30 01:13:00",3091437,2.04,21.13452,4.454273,0.1266491,2.23,0,1.077333,356.4102,6.047039,0.08880442,1.22,0,-999,0,13.69,91.8,13.74,13.71,0.2,0,0,14.04,13.26,0.2,102.2065,3.327,3.327,3.325,100,0,0,0,206.6,19.93,19.94
"2022-08-30 01:14:00",3091438,2.041333,27.40656,7.541199,0.1819841,2.34,0,0.9953333,1.900608,12.43314,0.198926,1.48,0,-999,0,13.7,92.4,13.8,13.75,0.2,0,0,14.04,13.26,0.2,102.2073,3.327,3.329,3.327,100,0,0,0,206.6,19.93,19.94
"2022-08-30 01:15:00",3091439,2.029334,31.43163,8.021851,0.2025657,2.43,0,1.297333,18.73124,7.42344,0.1992809,1.64,0,-999,0,13.7,92.3,13.77,13.72,0.2,0,0,14.03,13.26,0.2,102.2118,3.326,3.33,3.326,100,0,0,0,206.6,19.93,19.94
"2022-08-30 01:16:00",3091440,2.008667,23.65457,8.026245,0.1458248,2.34,0,1.317333,6.268924,5.553589,0.07894865,1.49,0,-999,0,13.65,92.1,13.72,13.69,0.2,0,0,14.01,13.26,0.2,102.2142,3.327,3.328,3.325,100,0,0,0,206.6,19.94,19.94
"2022-08-30 01:17:00",3091441,1.9,18.67068,6.186993,0.1239354,2.1,0,1.117333,359.9252,5.564648,0.1393541,1.35,0,-999,0,13.69,92.3,13.74,13.71,0.2,0,0,14,13.26,0.2,102.2103,3.327,3.328,3.325,100,0,0,0,206.6,19.94,19.94
"2022-08-30 01:18:00",3091442,2.512,27.71814,10.42415,0.6195289,3.56,0,1.091333,3.243558,9.469764,0.1510349,1.34,0,-999,0,13.7,92.5,13.81,13.76,0.2,0,0,13.99,13.26,0.2,102.2112,3.328,3.328,3.326,100,0,0,0,206.6,19.94,19.94
"2022-08-30 01:19:00",3091443,2.446666,24.3271,6.941181,0.230497,2.76,0,1.197333,356.0666,6.756381,0.1584705,1.53,0,-999,0,13.69,91.9,13.75,13.72,0.2,0,0,13.99,13.26,0.2,102.2142,3.328,3.329,3.327,100,0,0,0,206.6,19.94,19.94
"2022-08-30 01:20:00",3091444,1.969333,26.26385,5.937242,0.1720646,2.22,0,1.405333,9.136975,5.996913,0.1892746,1.75,0,-999,0,13.6,91.6,13.64,13.63,0.2,0,0,13.98,13.26,0.2,102.2174,3.325,3.327,3.325,100,0,0,0,206.6,19.94,19.94
"2022-08-30 01:21:00",3091445,1.917333,19.14037,6.988302,0.3152241,2.66,0,1.538,6.42592,10.90503,0.265812,2.13,0,-999,0,13.65,92.7,13.76,13.72,0.2,0,0,13.97,13.27,0.2,102.2146,3.326,3.326,3.325,100,0,0,0,206.6,19.93,19.94
"2022-08-30 01:22:00",3091446,2.027333,24.46642,4.239447,0.2212229,2.43,0,1.378667,10.80058,3.014712,0.1700928,1.58,0,-999,0,13.77,93.4,13.95,13.88,0.2,0,0,13.95,13.26,0.2,102.2174,3.327,3.328,3.326,100,0,0,0,206.6,19.94,19.94
"2022-08-30 01:23:00",3091447,2.322,21.13695,6.245252,0.2160617,2.65,0,1.284,7.675368,7.166378,0.1599083,1.71,0,-999,0,13.8,93.2,13.96,13.92,0.2,0,0,13.94,13.26,0.2,102.2188,3.326,3.327,3.325,100,0,0,0,206.6,19.94,19.94
"2022-08-30 01:24:00",3091448,2.512,20.72643,6.347158,0.4002366,3.18,0,1.449333,7.866537,4.208498,0.3424318,2.04,0,-999,0,13.8,92.7,13.9,13.9,0.2,0,0,13.94,13.26,0.2,102.2127,3.327,3.328,3.325,100,0,0,0,206.6,19.94,19.94
"2022-08-30 01:25:00",3091449,2.976666,16.73784,6.954993,0.3327996,3.65,0,2.046667,4.942067,6.046305,0.1841979,2.35,0,-999,0,13.79,92.3,13.8,13.82,0.2,0,0,13.94,13.27,0.2,102.2177,3.327,3.329,3.326,100,0,0,0,206.6,19.94,19.94
"2022-08-30 01:26:00",3091450,2.912666,24.00312,6.344778,0.373871,3.66,0,1.686667,9.396605,4.893956,0.1282532,1.88,0,-999,0,13.8,92.6,13.84,13.84,0.2,0,0,13.92,13.26,0.2,102.2155,3.326,3.327,3.326,100,0,0,0,206.6,19.95,19.94
"2022-08-30 01:27:00",3091451,2.918667,21.2016,4.165595,0.178955,3.16,0,1.69,12.59475,6.864514,0.2548986,2.04,0,-999,0,13.84,92.8,13.94,13.93,0.2,0,0,13.92,13.26,0.2,102.2089,3.324,3.327,3.324,100,0,0,0,206.6,19.94,19.94
"2022-08-30 01:28:00",3091452,3.124667,23.26562,4.357688,0.3212863,3.79,0,1.85,13.06631,4.608802,0.2444313,2.32,0,-999,0,13.9,92.7,13.98,14,0.2,0,0,13.92,13.26,0.2,102.211,3.326,3.327,3.322,100,0,0,0,206.6,19.95,19.94
"2022-08-30 01:29:00",3091453,3.162667,24.53583,4.63023,0.2565012,3.83,0,2.036667,13.66746,4.188426,0.2333143,2.56,0,-999,0,13.9,92.6,13.97,13.99,0.2,0,0,13.92,13.26,0.2,102.2107,3.326,3.327,3.325,100,0,0,0,206.6,19.94,19.94
"2022-08-30 01:30:00",3091454,3.198,24.32469,7.241581,0.4133312,4.07,0,2.02,19.15166,7.694559,0.3860052,2.83,0,-999,0,13.95,92.8,14.07,14.06,0.2,0,0,13.92,13.26,0.2,102.2154,3.325,3.328,3.325,100,0,0,0,206.6,19.94,19.94
"2022-08-30 01:31:00",3091455,3.177333,25.93208,4.822412,0.474053,4,0,1.953333,19.85055,8.073955,0.4122405,2.67,0,-999,0,14.09,92.5,14.14,14.16,0.2,0,0,13.92,13.26,0.2,102.2122,3.326,3.326,3.324,100,0,0,0,206.6,19.94,19.94
"2022-08-30 01:32:00",3091456,2.638,24.92589,6.572954,0.1569374,2.94,0,1.895333,24.40023,6.557332,0.1870781,2.29,0,-999,0,14.1,92.1,14.16,14.19,0.2,0,0,13.92,13.26,0.2,102.2118,3.327,3.328,3.325,100,0,0,0,206.6,19.94,19.94
"2022-08-30 01:33:00",3091457,2.479333,24.39824,3.53536,0.2795345,3.01,0,1.720667,25.9341,5.902024,0.2087891,2.13,0,-999,0,14.1,92,14.12,14.15,0.2,0,0,13.92,13.27,0.2,102.2128,3.326,3.327,3.325,100,0,0,0,206.6,19.95,19.94
"2022-08-30 01:34:00",3091458,2.664667,26.07388,6.511412,0.4163151,3.63,0,1.594,15.73609,4.69584,0.3760638,2.75,0,-999,0,14.13,92.4,14.18,14.2,0.2,0,0,13.92,13.26,0.2,102.2117,3.326,3.326,3.325,100,0,0,0,206.6,19.95,19.94
"2022-08-30 01:35:00",3091459,3.102,27.80108,5.266945,0.3183541,3.62,0,1.863333,24.34823,8.351473,0.3912487,2.7,0,-999,0,14.2,92.2,14.2,14.24,0.2,0,0,13.92,13.26,0.2,102.2163,3.325,3.328,3.325,100,0,0,0,206.6,19.95,19.94
"2022-08-30 01:36:00",3091460,2.833333,27.73097,6.01329,0.2567402,3.32,0,1.706,23.5378,5.687408,0.1980168,2.1,0,-999,0,14.2,91.7,14.21,14.28,0.2,0,0,13.93,13.26,0.2,102.2187,3.326,3.327,3.325,100,0,0,0,206.6,19.95,19.94
"2022-08-30 01:37:00",3091461,2.631333,29.26463,5.357412,0.3527957,3.36,0,1.700667,24.84965,8.709703,0.2545182,2.1,0,-999,0,14.2,91.9,14.24,14.29,0.2,0,0,13.94,13.26,0.2,102.2179,3.327,3.327,3.325,100,0,0,0,206.6,19.95,19.94
"2022-08-30 01:38:00",3091462,2.319333,27.33609,5.733578,0.2190728,2.72,0,1.56,23.20003,5.657178,0.2061391,1.95,0,-999,0,14.21,92.1,14.25,14.29,0.2,0,0,13.94,13.26,0.2,102.2237,3.325,3.327,3.325,100,0,0,0,206.6,19.94,19.95
"2022-08-30 01:39:00",3091463,2.237334,27.60511,5.423364,0.1840459,2.55,0,1.136,22.19582,5.828372,0.2340028,1.56,0,-999,0,14.27,92,14.27,14.31,0.2,0,0,13.94,13.26,0.2,102.2233,3.327,3.327,3.326,100,0,0,0,206.6,19.94,19.95
"2022-08-30 01:40:00",3091464,2.028666,24.20178,6.927071,0.2310517,2.56,0,1.104667,19.9981,6.992152,0.2139429,1.62,0,-999,0,14.25,91.7,14.24,14.3,0.2,0,0,13.94,13.26,0.2,102.2191,3.326,3.327,3.325,100,0,0,0,206.6,19.94,19.95
"2022-08-30 01:41:00",3091465,1.928,26.62099,13.31345,0.3966728,2.84,0,1.009333,22.85905,10.93075,0.4583371,2.03,0,-999,0,14.2,91.6,14.2,14.26,0.2,0,0,13.94,13.26,0.2,102.2188,3.327,3.328,3.325,100,0,0,0,206.6,19.94,19.95
"2022-08-30 01:42:00",3091466,2.034667,26.68267,10.0603,0.3991802,2.82,0,0.8513334,39.99725,11.01799,0.2425109,1.53,0,-999,0,14.2,91.7,14.18,14.22,0.2,0,0,13.95,13.25,0.2,102.2217,3.325,3.328,3.325,100,0,0,0,206.6,19.94,19.95
"2022-08-30 01:43:00",3091467,2.91,26.34085,8.668351,0.3657868,3.53,0,1.239333,14.59595,15.73398,0.3757742,2.09,0,-999,0,14.2,91.6,14.16,14.2,0.2,0,0,13.96,13.26,0.2,102.2174,3.327,3.327,3.325,100,0,0,0,206.6,19.95,19.94
"2022-08-30 01:44:00",3091468,2.490666,22.27157,6.347734,0.3143345,3.04,0,1.196,7.206915,12.00722,0.2439891,1.54,0,-999,0,14.2,91.5,14.2,14.22,0.2,0,0,13.97,13.26,0.2,102.2212,3.325,3.327,3.325,100,0,0,0,206.6,19.95,19.94
"2022-08-30 01:45:00",3091469,2.267333,17.61036,8.025701,0.2107595,2.49,0,1.22,352.3892,6.645772,0.1847881,1.56,0,-999,0,14.2,91.5,14.23,14.26,0.2,0,0,13.97,13.26,0.2,102.2259,3.325,3.327,3.325,100,0,0,0,206.6,19.94,19.94
"2022-08-30 01:46:00",3091470,1.958667,22.78973,6.475737,0.2117504,2.36,0,1.042,357.1964,9.067329,0.2178439,1.55,0,-999,0,14.2,91.5,14.15,14.19,0.2,0,0,13.97,13.26,0.2,102.2223,3.325,3.326,3.325,100,0,0,0,206.6,19.94,19.94
"2022-08-30 01:47:00",3091471,1.718667,13.99926,6.051214,0.1604937,1.93,0,0.8926667,1.766662,10.82012,0.08290289,1.03,0,-999,0,14.17,91.7,14.15,14.17,0.2,0,0,13.99,13.26,0.2,102.2213,3.325,3.325,3.324,100,0,0,0,206.6,19.94,19.94